[Date Prev][Date Next][Thread Prev][Thread Next] - [Date Index][Thread Index][Author Index]
2 Line ISS Keps 2-24
- Subject: [sarex] 2 Line ISS Keps 2-24
- From: "Dave Larsen PhD" <doc@xxxxxxxxxxx>
- Date: Tue, 24 Feb 2004 01:49:58 -0800
ISS
1 25544U 98067A 04055.12824074 .00016041 00000-0 15009-3 0 2568
2 25544 51.6287 186.4956 0006259 200.5364 148.0926 15.67412386300413
----
Via the sarex mailing list at AMSAT.ORG courtesy of AMSAT-NA.
To unsubscribe, send "unsubscribe sarex" to Majordomo@amsat.org
AMSAT Home